Location: Wien
(48.2082°N, 16.3738°E)
Time: 21:11:03
(UTC+01:00)

Envisat - Visible Passes

Search period start: 21 March 2019 00:00
Search period end: 31 March 2019 00:00
Orbit: 764 x 766 km, 98.2° (Epoch: 21 March)

Date Brightness Start Highest point End Pass type
(mag) Time Alt. Az. Time Alt. Az. Time Alt. Az.
21 Mar 3.5 18:37:21 10° S 18:42:24 68° WSW 18:47:30 10° NNW visible
22 Mar 5.7 19:41:24 10° SW 19:45:06 20° W 19:48:51 10° NW visible
23 Mar 4.5 19:03:16 10° SSW 19:08:03 40° W 19:12:51 10° NNW visible
24 Mar 6.1 20:09:08 10° WSW 20:11:00 12° W 20:12:52 10° WNW visible
25 Mar 5.4 19:29:39 10° SSW 19:33:47 25° W 19:37:56 10° NW visible
26 Mar 4.1 18:51:51 10° S 18:56:46 50° W 19:01:43 10° NNW visible
27 Mar 5.9 19:56:46 10° WSW 19:59:37 15° W 20:02:29 10° NW visible
28 Mar 5.1 19:18:00 10° SSW 19:22:27 30° W 19:26:56 10° NNW visible
30 Mar 5.8 19:44:46 10° SW 19:48:15 19° W 19:51:47 10° NW visible
